FW1271 Weather Reports


time (UTC)temp
C
wind
direction
speed
KPH
gust
KPH
rain 1hr
cm
rain 24hr
cm
rain mn
cm
humidity
%
barometer
mb
20260505234005 17 308 0.0 3.2 0.00 0.00 0.00 69 1014.5
20260505232004 17 308 0.0 3.2 0.00 0.00 0.00 69 1014.4
20260505230003 17 340 0.0 3.2 0.00 0.00 0.00 68 1014.4
20260505225004 17 314 0.0 4.8 0.00 0.00 0.00 69 1014.4
20260505224004 17 57 0.0 4.8 0.00 0.00 0.00 69 1014.5
20260505223004 17 329 0.0 0.0 0.00 0.00 0.00 69 1014.5
20260505221003 17 325 0.0 4.8 0.00 0.00 0.00 69 1014.6
20260505220004 17 32 1.6 3.2 0.00 0.00 0.00 69 1014.7
20260505215004 17 32 0.0 3.2 0.00 0.00 0.00 69 1014.7
20260505214003 16 32 3.2 3.2 0.00 0.00 0.00 70 1014.9
20260505213003 16 32 0.0 3.2 0.00 0.00 0.00 69 1015.0
20260505212003 16 32 1.6 3.2 0.00 0.00 0.00 69 1015.1
20260505211004 16 32 0.0 3.2 0.00 0.00 0.00 69 1015.0
20260505210003 16 34 3.2 4.8 0.00 0.00 0.00 69 1014.9
20260505205004 17 34 0.0 3.2 0.00 0.00 0.00 68 1015.0
20260505204004 17 149 0.0 0.0 0.00 0.00 0.00 68 1014.9
20260505203004 16 149 0.0 0.0 0.00 0.00 0.00 69 1014.9
20260505202004 16 149 0.0 1.6 0.00 0.00 0.00 68 1014.9
20260505200004 16 148 0.0 0.0 0.00 0.00 0.00 68 1015.2
20260505195003 16 145 0.0 0.0 0.00 0.00 0.00 68 1015.2
20260505194004 16 145 0.0 0.0 0.00 0.00 0.00 67 1015.3
20260505193003 16 145 0.0 3.2 0.00 0.00 0.00 68 1015.3
20260505190004 15 140 0.0 4.8 0.00 0.00 0.00 70 1015.2
20260505185004 15 152 1.6 3.2 0.00 0.00 0.00 69 1015.2
20260505183004 15 151 0.0 3.2 0.00 0.00 0.00 70 1015.2
20260505182003 15 144 0.0 4.8 0.00 0.00 0.00 71 1015.2
20260505180004 15 142 0.0 0.0 0.00 0.00 0.00 71 1015.1
20260505175004 15 142 0.0 4.8 0.00 0.00 0.00 70 1015.0
20260505174004 15 75 1.6 3.2 0.00 0.00 0.00 71 1014.9
20260505173003 15 69 4.8 4.8 0.00 0.00 0.00 71 1014.7
20260505172004 14 32 0.0 0.0 0.00 0.00 0.00 71 1014.6
20260505164004 14 205 0.0 0.0 0.00 0.00 0.00 73 1014.6
20260505163004 13 205 0.0 3.2 0.00 0.00 0.00 75 1014.4
20260505162003 13 210 0.0 0.0 0.00 0.00 0.00 75 1014.5
20260505161004 13 210 0.0 0.0 0.00 0.00 0.00 75 1014.5
20260505153003 12 272 0.0 0.0 0.00 0.00 0.00 78 1014.3
20260505152004 12 271 0.0 0.0 0.00 0.00 0.00 78 1014.2
20260505151004 12 271 0.0 0.0 0.00 0.00 0.00 79 1014.3
20260505125003 12 273 0.0 0.0 0.00 0.00 0.00 78 1013.6
20260505124004 12 273 0.0 0.0 0.00 0.00 0.00 78 1013.6
20260505123004 12 273 0.0 0.0 0.00 0.00 0.00 78 1013.6
20260505122004 12 273 0.0 0.0 0.00 0.00 0.00 78 1013.6
20260505121003 12 273 0.0 0.0 0.00 0.00 0.00 77 1013.7
20260505120005 12 273 0.0 0.0 0.00 0.00 0.00 77 1013.8
20260505114004 12 273 0.0 0.0 0.00 0.00 0.00 76 1013.8
20260505113005 12 273 0.0 0.0 0.00 0.00 0.00 76 1013.9
20260505112004 12 273 0.0 0.0 0.00 0.00 0.00 76 1013.7
20260505111003 12 273 0.0 0.0 0.00 0.00 0.00 76 1013.8
20260505102004 12 277 0.0 0.0 0.00 0.00 0.00 75 1013.7
20260505100004 12 277 0.0 0.0 0.00 0.00 0.00 75 1013.8
20260505095004 12 277 0.0 1.6 0.00 0.00 0.00 75 1013.8
20260505094005 12 277 0.0 4.8 0.00 0.00 0.00 74 1013.9
20260505093029 12 235 1.6 1.6 0.00 0.00 0.00 73 1014.0
20260505092003 12 76 0.0 3.2 0.00 0.00 0.00 73 1013.9
20260505090005 12 259 0.0 3.2 0.00 0.00 0.00 73 1014.2
20260505085004 12 262 0.0 4.8 0.00 0.00 0.00 73 1014.3
20260505084004 12 259 3.2 4.8 0.00 0.00 0.00 74 1014.3
20260505083012 12 202 0.0 3.2 0.00 0.00 0.00 75 1014.4
20260505082004 12 202 0.0 4.8 0.00 0.00 0.00 76 1014.4
20260505081004 12 248 4.8 4.8 0.00 0.00 0.00 77 1014.5
20260505080004 12 200 0.0 3.2 0.00 0.00 0.00 77 1014.6
20260505075004 12 223 0.0 3.2 0.00 0.00 0.00 78 1014.5
20260505074004 12 261 0.0 0.0 0.00 0.00 0.00 79 1014.5
20260505073004 12 278 0.0 0.0 0.00 0.00 0.00 79 1014.5
20260505072004 13 278 0.0 3.2 0.00 0.00 0.00 80 1014.4
20260505071004 13 278 0.0 0.0 0.00 0.00 0.00 79 1014.4
20260505070006 13 278 0.0 0.0 0.00 0.00 0.00 79 1014.1
20260505065004 13 278 0.0 0.0 0.00 0.00 0.00 78 1014.2
20260505064003 13 278 0.0 0.0 0.00 0.00 0.00 78 1014.2
20260505063003 13 278 0.0 3.2 0.00 0.00 0.00 78 1014.2
20260505060004 13 46 0.0 0.0 0.00 0.00 0.00 76 1013.9
20260505055003 13 46 0.0 3.2 0.00 0.00 0.00 75 1014.1
20260505054004 13 329 0.0 0.0 0.00 0.00 0.00 75 1014.1
20260505053004 13 246 0.0 3.2 0.00 0.00 0.00 75 1014.3
20260505052003 13 246 0.0 3.2 0.00 0.00 0.00 74 1014.5
20260505051004 13 173 0.0 4.8 0.00 0.00 0.00 74 1014.5
20260505041003 15 256 4.8 4.8 0.00 0.00 0.00 69 1013.9
20260505040005 15 236 0.0 6.4 0.00 0.00 0.00 68 1013.9
20260505035003 15 215 1.6 4.8 0.00 0.00 0.00 67 1013.7
20260505034003 15 216 0.0 1.6 0.00 0.00 0.00 66 1013.5
20260505033004 15 216 0.0 3.2 0.00 0.00 0.00 66 1013.4
20260505032003 15 226 0.0 4.8 0.00 0.00 0.00 66 1013.2
20260505031004 15 74 0.0 4.8 0.00 0.00 0.00 66 1013.3
20260505030004 15 264 0.0 4.8 0.00 0.00 0.00 66 1013.3
20260505025004 15 265 0.0 6.4 0.00 0.00 0.00 66 1013.3
20260505024004 15 235 1.6 4.8 0.00 0.00 0.00 65 1013.2
20260505023004 16 286 3.2 9.7 0.00 0.00 0.00 64 1013.2
20260505022004 16 231 3.2 9.7 0.00 0.00 0.00 63 1013.0
20260505021004 16 232 3.2 6.4 0.00 0.00 0.00 62 1013.2
20260505020005 16 220 1.6 6.4 0.00 0.00 0.00 62 1012.9
20260505015003 16 233 0.0 4.8 0.00 0.00 0.00 63 1013.0
20260505014004 16 232 1.6 6.4 0.00 0.00 0.00 63 1013.0
20260505012004 17 248 0.0 8.0 0.00 0.00 0.00 62 1013.2
20260505011004 17 96 1.6 11.3 0.00 0.00 0.00 62 1013.3
20260505010005 17 55 4.8 8.0 0.00 0.00 0.00 63 1013.3
20260505005004 17 71 0.0 6.4 0.00 0.00 0.00 64 1013.3
20260505004004 17 241 0.0 6.4 0.00 0.00 0.00 64 1013.4
20260505003003 17 360 3.2 6.4 0.00 0.00 0.00 63 1013.4
20260505002003 17 360 0.0 8.0 0.00 0.00 0.00 63 1013.4
20260505001004 17 273 1.6 6.4 0.00 0.00 0.00 63 1013.3